Location: Newark
(21.1200°N, 73.4000°E)
Time: 04:19:06
(UTC+00:00)

Courier 1B Rocket - Pass Details

Date: 20 January 2020
Orbit: 920 x 1202 km, 28.2° (Epoch: 16 February)

Event Time Altitude Azimuth Distance (km) Brightness Sun altitude
Rises 04:50:29 0° 208° (SSW) 3,989 8.4 35.3°
Reaches altitude 10° 04:54:19 10° 191° (S) 2,981 8.1 35.9°
Maximum altitude 04:59:06 19° 150° (SSE) 2,339 8.6 36.6°
Drops below altitude 10° 05:03:42 10° 108° (ESE) 2,844 8.4 37.3°
Sets 05:07:13 0° 90° (E) 3,742 8.5 37.8°
